| time (UTC) | temp F | wind direction | speed MPH | gust MPH | rain 1hr in | rain 24hr in | rain mn in | humidity % | barometer mb |
| 20260506061913 | 50 | 238 | 3.0 | 7.0 | 0.00 | 0.06 | 0.00 | 73 | 1007.5 |
| 20260506060413 | 50 | 233 | 3.0 | 7.0 | 0.00 | 0.06 | 0.00 | 72 | 1007.4 |
| 20260506050413 | 50 | 273 | 2.0 | 5.0 | 0.00 | 0.06 | 0.00 | 72 | 1006.8 |
| 20260506044913 | 51 | 240 | 3.0 | 6.0 | 0.00 | 0.06 | 0.00 | 70 | 1006.8 |
| 20260506043413 | 51 | 259 | 3.0 | 7.0 | 0.00 | 0.06 | 0.00 | 68 | 1006.7 |
| 20260506041913 | 51 | 238 | 4.0 | 7.0 | 0.00 | 0.06 | 0.00 | 68 | 1006.5 |
| 20260506040413 | 51 | 255 | 4.0 | 10.0 | 0.00 | 0.06 | 0.06 | 68 | 1006.1 |
| 20260506034913 | 52 | 252 | 4.0 | 7.0 | 0.00 | 0.06 | 0.06 | 69 | 1006.0 |
| 20260506033413 | 52 | 281 | 6.0 | 10.0 | 0.00 | 0.06 | 0.06 | 69 | 1005.9 |
| 20260506031913 | 53 | 250 | 5.0 | 9.0 | 0.00 | 0.06 | 0.06 | 68 | 1005.5 |
| 20260506030413 | 53 | 259 | 7.0 | 14.0 | 0.00 | 0.06 | 0.06 | 68 | 1005.6 |
| 20260506024913 | 53 | 278 | 6.0 | 12.0 | 0.00 | 0.06 | 0.06 | 68 | 1005.2 |
| 20260506023413 | 54 | 285 | 6.0 | 12.0 | 0.00 | 0.06 | 0.06 | 68 | 1004.9 |
| 20260506021913 | 55 | 252 | 6.0 | 14.0 | 0.00 | 0.06 | 0.06 | 67 | 1004.8 |
| 20260506020413 | 55 | 275 | 5.0 | 11.0 | 0.00 | 0.06 | 0.06 | 69 | 1004.6 |
| 20260506014913 | 55 | 260 | 3.0 | 8.0 | 0.00 | 0.06 | 0.06 | 69 | 1004.4 |
| 20260506013413 | 55 | 203 | 5.0 | 10.0 | 0.00 | 0.06 | 0.06 | 67 | 1004.3 |
| 20260506011913 | 56 | 276 | 3.0 | 12.0 | 0.00 | 0.06 | 0.06 | 67 | 1003.9 |
| 20260506010413 | 57 | 264 | 3.0 | 6.0 | 0.00 | 0.06 | 0.06 | 63 | 1003.5 |
| 20260506004913 | 58 | 220 | 3.0 | 6.0 | 0.00 | 0.06 | 0.06 | 62 | 1002.9 |
| 20260506003413 | 58 | 226 | 5.0 | 8.0 | 0.00 | 0.06 | 0.06 | 62 | 1003.0 |
| 20260506001913 | 59 | 296 | 6.0 | 14.0 | 0.00 | 0.06 | 0.06 | 61 | 1003.0 |
| 20260506000413 | 59 | 274 | 6.0 | 12.0 | 0.00 | 0.06 | 0.06 | 64 | 1002.9 |
| 20260505234913 | 60 | 283 | 3.0 | 5.0 | 0.00 | 0.06 | 0.06 | 66 | 1002.4 |
| 20260505233413 | 60 | 274 | 3.0 | 6.0 | 0.00 | 0.06 | 0.06 | 64 | 1002.1 |
| 20260505231913 | 60 | 285 | 3.0 | 7.0 | 0.00 | 0.06 | 0.06 | 63 | 1001.7 |
| 20260505230413 | 61 | 285 | 4.0 | 7.0 | 0.00 | 0.06 | 0.06 | 63 | 1001.6 |
| 20260505224913 | 61 | 282 | 6.0 | 15.0 | 0.00 | 0.06 | 0.06 | 63 | 1001.7 |
| 20260505223413 | 61 | 269 | 6.0 | 12.0 | 0.00 | 0.06 | 0.06 | 65 | 1001.0 |
| 20260505221913 | 61 | 270 | 6.0 | 10.0 | 0.00 | 0.06 | 0.06 | 68 | 1000.8 |
| 20260505220413 | 61 | 251 | 2.0 | 10.0 | 0.00 | 0.06 | 0.06 | 70 | 1000.5 |
| 20260505214913 | 62 | 252 | 5.0 | 9.0 | 0.00 | 0.06 | 0.06 | 70 | 1000.3 |
| 20260505213413 | 61 | 277 | 5.0 | 9.0 | 0.00 | 0.06 | 0.06 | 71 | 1000.2 |
| 20260505211913 | 61 | 259 | 5.0 | 9.0 | 0.00 | 0.06 | 0.06 | 71 | 999.9 |
| 20260505210413 | 61 | 235 | 6.0 | 18.0 | 0.00 | 0.06 | 0.06 | 72 | 999.4 |
| 20260505204913 | 61 | 287 | 6.0 | 14.0 | 0.00 | 0.06 | 0.06 | 71 | 999.2 |
| 20260505203413 | 64 | 330 | 12.0 | 19.0 | 0.00 | 0.06 | 0.06 | 69 | 999.0 |
| 20260505201913 | 67 | 233 | 8.0 | 23.0 | 0.00 | 0.06 | 0.06 | 60 | 998.2 |
| 20260505200413 | 68 | 207 | 8.0 | 17.0 | 0.00 | 0.06 | 0.06 | 59 | 998.0 |
| 20260505194913 | 68 | 221 | 8.0 | 16.0 | 0.00 | 0.06 | 0.06 | 59 | 997.8 |
| 20260505193413 | 69 | 240 | 9.0 | 13.0 | 0.00 | 0.06 | 0.06 | 57 | 997.6 |
| 20260505191913 | 70 | 270 | 9.0 | 19.0 | 0.00 | 0.06 | 0.06 | 58 | 997.6 |
| 20260505190413 | 69 | 234 | 8.0 | 21.0 | 0.00 | 0.06 | 0.06 | 60 | 997.7 |
| 20260505184913 | 70 | 201 | 7.0 | 16.0 | 0.00 | 0.06 | 0.06 | 59 | 997.7 |
| 20260505183413 | 70 | 225 | 6.0 | 14.0 | 0.00 | 0.06 | 0.06 | 61 | 997.9 |
| 20260505181913 | 68 | 206 | 5.0 | 9.0 | 0.00 | 0.06 | 0.06 | 61 | 998.1 |
| 20260505180413 | 67 | 220 | 5.0 | 11.0 | 0.00 | 0.06 | 0.06 | 65 | 998.3 |
| 20260505174913 | 65 | 219 | 3.0 | 9.0 | 0.00 | 0.06 | 0.06 | 71 | 998.4 |
| 20260505173413 | 62 | 220 | 1.0 | 4.0 | 0.00 | 0.06 | 0.06 | 76 | 998.5 |
| 20260505171913 | 60 | 239 | 2.0 | 5.0 | 0.01 | 0.06 | 0.06 | 78 | 998.6 |
| 20260505170413 | 57 | 233 | 0.0 | 3.0 | 0.01 | 0.06 | 0.06 | 82 | 998.8 |
| 20260505164913 | 56 | 229 | 0.0 | 2.0 | 0.01 | 0.06 | 0.06 | 82 | 999.3 |
| 20260505163413 | 56 | 228 | 1.0 | 2.0 | 0.01 | 0.06 | 0.06 | 81 | 999.7 |
| 20260505161913 | 56 | 287 | 0.0 | 2.0 | 0.05 | 0.05 | 0.05 | 81 | 999.8 |
| 20260505160413 | 56 | 288 | 1.0 | 3.0 | 0.05 | 0.05 | 0.05 | 81 | 999.8 |
| 20260505151913 | 60 | 279 | 4.0 | 8.0 | 0.00 | 0.00 | 0.00 | 72 | 1000.6 |
| 20260505150413 | 62 | 248 | 4.0 | 9.0 | 0.00 | 0.00 | 0.00 | 69 | 1000.4 |
| 20260505140413 | 61 | 222 | 4.0 | 8.0 | 0.00 | 0.00 | 0.00 | 69 | 1000.3 |
| 20260505124913 | 53 | 1 | 0.0 | 0.0 | 0.00 | 0.07 | 0.00 | 74 | 1000.6 |
| 20260505123413 | 51 | 1 | 0.0 | 0.0 | 0.00 | 0.07 | 0.00 | 75 | 1000.6 |
| 20260505121914 | 49 | 1 | 0.0 | 0.0 | 0.00 | 0.24 | 0.00 | 78 | 1000.7 |
| 20260505120413 | 47 | 1 | 0.0 | 0.0 | 0.00 | 0.24 | 0.00 | 81 | 1000.7 |
| 20260505114913 | 45 | 1 | 1.0 | 2.0 | 0.00 | 0.24 | 0.00 | 83 | 1000.6 |
| 20260505113413 | 44 | 1 | 0.0 | 0.0 | 0.00 | 0.24 | 0.00 | 85 | 1000.9 |
| 20260505112004 | 43 | 1 | 0.0 | 0.0 | 0.00 | 0.32 | 0.00 | 87 | 1001.1 |
| 20260505111913 | 43 | 1 | 0.0 | 0.0 | 0.00 | 0.32 | 0.00 | 87 | 1001.1 |
| 20260505110413 | 42 | 1 | 1.0 | 3.0 | 0.00 | 0.32 | 0.00 | 88 | 1001.1 |
| 20260505101913 | 39 | 1 | 0.0 | 0.0 | 0.00 | 0.32 | 0.00 | 88 | 1000.8 |
| 20260505100413 | 39 | 1 | 0.0 | 0.0 | 0.00 | 0.32 | 0.00 | 87 | 1001.0 |
| 20260505094913 | 39 | 1 | 0.0 | 0.0 | 0.00 | 0.32 | 0.00 | 87 | 1001.0 |
| 20260505093413 | 39 | 1 | 1.0 | 2.0 | 0.00 | 0.32 | 0.00 | 87 | 1001.3 |
| 20260505091913 | 40 | 18 | 1.0 | 3.0 | 0.00 | 0.32 | 0.00 | 87 | 1001.1 |
| 20260505090413 | 40 | 359 | 1.0 | 2.0 | 0.00 | 0.32 | 0.00 | 87 | 1001.2 |
| 20260505084913 | 40 | 359 | 0.0 | 2.0 | 0.00 | 0.32 | 0.00 | 87 | 1001.2 |
| 20260505083413 | 41 | 359 | 1.0 | 2.0 | 0.00 | 0.32 | 0.00 | 86 | 1001.3 |
| 20260505081913 | 41 | 50 | 1.0 | 2.0 | 0.00 | 0.32 | 0.00 | 86 | 1001.4 |
| 20260505080414 | 41 | 69 | 0.0 | 3.0 | 0.00 | 0.32 | 0.00 | 86 | 1001.5 |
| 20260505074914 | 41 | 25 | 0.0 | 3.0 | 0.00 | 0.32 | 0.00 | 85 | 1001.6 |
| 20260505073414 | 42 | 41 | 1.0 | 2.0 | 0.00 | 0.32 | 0.00 | 85 | 1001.5 |
| 20260505071914 | 42 | 77 | 0.0 | 4.0 | 0.00 | 0.32 | 0.00 | 85 | 1001.6 |
| 20260505070414 | 42 | 65 | 1.0 | 3.0 | 0.00 | 0.32 | 0.00 | 85 | 1001.7 |